Year,Month,Day,Hour,Minute,Value (Times are PST for temperature in C)
2015,04,05,00,00,4.10
2015,04,05,00,01,4.10
2015,04,05,00,02,4.10
2015,04,05,00,03,4.10
2015,04,05,00,04,4.10
2015,04,05,00,05,4.10
2015,04,05,00,06,4.00
2015,04,05,00,07,4.10
2015,04,05,00,08,4.10
2015,04,05,00,09,4.10
2015,04,05,00,10,4.10
2015,04,05,00,11,4.10
2015,04,05,00,12,4.20
2015,04,05,00,13,4.20
2015,04,05,00,14,4.30
2015,04,05,00,15,4.30
2015,04,05,00,16,4.30
2015,04,05,00,17,4.30
2015,04,05,00,18,4.20
2015,04,05,00,19,4.20
2015,04,05,00,20,4.20
2015,04,05,00,21,4.20
2015,04,05,00,22,4.20
2015,04,05,00,23,4.20
2015,04,05,00,24,4.10
2015,04,05,00,25,4.10
2015,04,05,00,26,4.10
2015,04,05,00,27,4.10
2015,04,05,00,28,4.10
2015,04,05,00,29,4.10
2015,04,05,00,30,4.00
2015,04,05,00,31,4.00
2015,04,05,00,32,4.00
2015,04,05,00,33,4.00
2015,04,05,00,34,4.00
2015,04,05,00,35,3.90
2015,04,05,00,36,3.90
2015,04,05,00,37,3.90
2015,04,05,00,38,3.90
2015,04,05,00,39,3.90
2015,04,05,00,40,3.90
2015,04,05,00,41,3.90
2015,04,05,00,42,4.00
2015,04,05,00,43,4.00
2015,04,05,00,44,4.00
2015,04,05,00,45,4.00
2015,04,05,00,46,4.00
2015,04,05,00,47,4.00
2015,04,05,00,48,4.00
2015,04,05,00,49,4.00
2015,04,05,00,50,4.00
2015,04,05,00,51,4.00
2015,04,05,00,52,4.00
2015,04,05,00,53,4.10
2015,04,05,00,54,4.10
2015,04,05,00,55,4.10
2015,04,05,00,56,4.10
2015,04,05,00,57,4.10
2015,04,05,00,58,4.10
2015,04,05,00,59,4.10
2015,04,05,01,00,4.10
2015,04,05,01,01,4.10
2015,04,05,01,02,4.10
2015,04,05,01,03,4.20
2015,04,05,01,04,4.20
2015,04,05,01,05,4.20
2015,04,05,01,06,4.20
2015,04,05,01,07,4.20
2015,04,05,01,08,4.20
2015,04,05,01,09,4.20
2015,04,05,01,10,4.20
2015,04,05,01,11,4.20
2015,04,05,01,12,4.30
2015,04,05,01,13,4.30
2015,04,05,01,14,4.30
2015,04,05,01,15,4.30
2015,04,05,01,16,4.30
2015,04,05,01,17,4.30
2015,04,05,01,18,4.30
2015,04,05,01,19,4.30
2015,04,05,01,20,4.30
2015,04,05,01,21,4.30
2015,04,05,01,22,4.30
2015,04,05,01,23,4.30
2015,04,05,01,24,4.30
2015,04,05,01,25,4.30
2015,04,05,01,26,4.30
2015,04,05,01,27,4.30
2015,04,05,01,28,4.30
2015,04,05,01,29,4.30
2015,04,05,01,30,4.30
2015,04,05,01,31,4.30
2015,04,05,01,32,4.30
2015,04,05,01,33,4.30
2015,04,05,01,34,4.30
2015,04,05,01,35,4.30
2015,04,05,01,36,4.30
2015,04,05,01,37,4.30
2015,04,05,01,38,4.30
2015,04,05,01,39,4.30
2015,04,05,01,40,4.20
2015,04,05,01,41,4.20
2015,04,05,01,42,4.20
2015,04,05,01,43,4.20
2015,04,05,01,44,4.20
2015,04,05,01,45,4.10
2015,04,05,01,46,4.10
2015,04,05,01,47,4.10
2015,04,05,01,48,4.10
2015,04,05,01,49,4.10
2015,04,05,01,50,4.10
2015,04,05,01,51,4.00
2015,04,05,01,52,4.00
2015,04,05,01,53,4.00
2015,04,05,01,54,4.00
2015,04,05,01,55,3.90
2015,04,05,01,56,3.90
2015,04,05,01,57,3.90
2015,04,05,01,58,3.80
2015,04,05,01,59,3.80
2015,04,05,02,00,3.80
2015,04,05,02,01,3.80
2015,04,05,02,02,3.80
2015,04,05,02,03,3.80
2015,04,05,02,04,3.70
2015,04,05,02,05,3.70
2015,04,05,02,06,3.70
2015,04,05,02,07,3.70
2015,04,05,02,08,3.70
2015,04,05,02,09,3.60
2015,04,05,02,10,3.60
2015,04,05,02,11,3.60
2015,04,05,02,12,3.60
2015,04,05,02,13,3.60
2015,04,05,02,14,3.50
2015,04,05,02,15,3.50
2015,04,05,02,16,3.50
2015,04,05,02,17,3.50
2015,04,05,02,18,3.50
2015,04,05,02,19,3.50
2015,04,05,02,20,3.40
2015,04,05,02,21,3.40
2015,04,05,02,22,3.40
2015,04,05,02,23,3.40
2015,04,05,02,24,3.40
2015,04,05,02,25,3.40
2015,04,05,02,26,3.40
2015,04,05,02,27,3.40
2015,04,05,02,28,3.30
2015,04,05,02,29,3.30
2015,04,05,02,30,3.30
2015,04,05,02,31,3.30
2015,04,05,02,32,3.30
2015,04,05,02,33,3.30
2015,04,05,02,34,3.30
2015,04,05,02,35,3.30
2015,04,05,02,36,3.30
2015,04,05,02,37,3.30
2015,04,05,02,38,3.20
2015,04,05,02,39,3.20
2015,04,05,02,40,3.20
2015,04,05,02,41,3.20
2015,04,05,02,42,3.20
2015,04,05,02,43,3.20
2015,04,05,02,44,3.20
2015,04,05,02,45,3.10
2015,04,05,02,46,3.10
2015,04,05,02,47,3.10
2015,04,05,02,48,3.10
2015,04,05,02,49,3.10
2015,04,05,02,50,3.10
2015,04,05,02,51,3.10
2015,04,05,02,52,3.10
2015,04,05,02,53,3.00
2015,04,05,02,54,3.00
2015,04,05,02,55,3.00
2015,04,05,02,56,3.00
2015,04,05,02,57,3.00
2015,04,05,02,58,3.00
2015,04,05,02,59,2.90
2015,04,05,03,00,2.90
2015,04,05,03,01,2.90
2015,04,05,03,02,2.90
2015,04,05,03,03,2.90
2015,04,05,03,04,2.80
2015,04,05,03,05,2.80
2015,04,05,03,06,2.80
2015,04,05,03,07,2.80
2015,04,05,03,08,2.80
2015,04,05,03,09,2.80
2015,04,05,03,10,2.80
2015,04,05,03,11,2.80
2015,04,05,03,12,2.80
2015,04,05,03,13,2.80
2015,04,05,03,14,2.80
2015,04,05,03,15,2.80
2015,04,05,03,16,2.80
2015,04,05,03,17,2.80
2015,04,05,03,18,2.80
2015,04,05,03,19,2.80
2015,04,05,03,20,2.80
2015,04,05,03,21,2.80
2015,04,05,03,22,2.80
2015,04,05,03,23,2.80
2015,04,05,03,24,2.90
2015,04,05,03,25,2.90
2015,04,05,03,26,2.90
2015,04,05,03,27,2.90
2015,04,05,03,28,2.90
2015,04,05,03,29,2.90
2015,04,05,03,30,2.90
2015,04,05,03,31,2.90
2015,04,05,03,32,2.90
2015,04,05,03,33,2.90
2015,04,05,03,34,3.00
2015,04,05,03,35,3.00
2015,04,05,03,36,3.00
2015,04,05,03,37,3.00
2015,04,05,03,38,3.00
2015,04,05,03,39,3.00
2015,04,05,03,40,3.10
2015,04,05,03,41,3.10
2015,04,05,03,42,3.10
2015,04,05,03,43,3.10
2015,04,05,03,44,3.10
2015,04,05,03,45,3.10
2015,04,05,03,46,3.10
2015,04,05,03,47,3.10
2015,04,05,03,48,3.10
2015,04,05,03,49,3.10
2015,04,05,03,50,3.10
2015,04,05,03,51,3.10
2015,04,05,03,52,3.20
2015,04,05,03,53,3.20
2015,04,05,03,54,3.20
2015,04,05,03,55,3.20
2015,04,05,03,56,3.20
2015,04,05,03,57,3.20
2015,04,05,03,58,3.20
2015,04,05,03,59,3.20
2015,04,05,04,00,3.20
2015,04,05,04,01,3.20
2015,04,05,04,02,3.20
2015,04,05,04,03,3.20
2015,04,05,04,04,3.20
2015,04,05,04,05,3.20
2015,04,05,04,06,3.20
2015,04,05,04,07,3.20
2015,04,05,04,08,3.20
2015,04,05,04,09,3.20
2015,04,05,04,10,3.20
2015,04,05,04,11,3.20
2015,04,05,04,12,3.20
2015,04,05,04,13,3.20
2015,04,05,04,14,3.20
2015,04,05,04,15,3.20
2015,04,05,04,16,3.10
2015,04,05,04,17,3.10
2015,04,05,04,18,3.10
2015,04,05,04,19,3.10
2015,04,05,04,20,3.10
2015,04,05,04,21,3.10
2015,04,05,04,22,3.10
2015,04,05,04,23,3.10
2015,04,05,04,24,3.10
2015,04,05,04,25,3.00
2015,04,05,04,26,3.00
2015,04,05,04,27,3.00
2015,04,05,04,28,2.90
2015,04,05,04,29,2.90
2015,04,05,04,30,2.90
2015,04,05,04,31,2.90
2015,04,05,04,32,2.80
2015,04,05,04,33,2.80
2015,04,05,04,34,2.80
2015,04,05,04,35,2.80
2015,04,05,04,36,2.80
2015,04,05,04,37,2.80
2015,04,05,04,38,2.80
2015,04,05,04,39,2.80
2015,04,05,04,40,2.80
2015,04,05,04,41,2.80
2015,04,05,04,42,2.80
2015,04,05,04,43,2.80
2015,04,05,04,44,2.80
2015,04,05,04,45,2.80
2015,04,05,04,46,2.80
2015,04,05,04,47,2.80
2015,04,05,04,48,2.80
2015,04,05,04,49,2.80
2015,04,05,04,50,2.90
2015,04,05,04,51,2.90
2015,04,05,04,52,2.90
2015,04,05,04,53,3.00
2015,04,05,04,54,3.00
2015,04,05,04,55,3.10
2015,04,05,04,56,3.10
2015,04,05,04,57,3.10
2015,04,05,04,58,3.10
2015,04,05,04,59,3.10
2015,04,05,05,00,3.10
2015,04,05,05,01,3.00
2015,04,05,05,02,3.00
2015,04,05,05,03,3.00
2015,04,05,05,04,2.90
2015,04,05,05,05,2.90
2015,04,05,05,06,2.90
2015,04,05,05,07,2.90
2015,04,05,05,08,2.90
2015,04,05,05,09,2.90
2015,04,05,05,10,3.00
2015,04,05,05,11,3.00
2015,04,05,05,12,3.10
2015,04,05,05,13,3.10
2015,04,05,05,14,3.10
2015,04,05,05,15,3.10
2015,04,05,05,16,3.20
2015,04,05,05,17,3.20
2015,04,05,05,18,3.20
2015,04,05,05,19,3.20
2015,04,05,05,20,3.10
2015,04,05,05,21,3.10
2015,04,05,05,22,3.00
2015,04,05,05,23,3.00
2015,04,05,05,24,2.90
2015,04,05,05,25,2.90
2015,04,05,05,26,2.80
2015,04,05,05,27,2.80
2015,04,05,05,28,2.70
2015,04,05,05,29,2.70
2015,04,05,05,30,2.70
2015,04,05,05,31,2.60
2015,04,05,05,32,2.60
2015,04,05,05,33,2.60
2015,04,05,05,34,2.60
2015,04,05,05,35,2.50
2015,04,05,05,36,2.50
2015,04,05,05,37,2.40
2015,04,05,05,38,2.40
2015,04,05,05,39,2.40
2015,04,05,05,40,2.30
2015,04,05,05,41,2.30
2015,04,05,05,42,2.30
2015,04,05,05,43,2.30
2015,04,05,05,44,2.20
2015,04,05,05,45,2.20
2015,04,05,05,46,2.20
2015,04,05,05,47,2.10
2015,04,05,05,48,2.10
2015,04,05,05,49,2.10
2015,04,05,05,50,2.10
2015,04,05,05,51,2.10
2015,04,05,05,52,2.10
2015,04,05,05,53,2.10
2015,04,05,05,54,2.10
2015,04,05,05,55,2.10
2015,04,05,05,56,2.10
2015,04,05,05,57,2.10
2015,04,05,05,58,2.10
2015,04,05,05,59,2.00
2015,04,05,06,00,2.00
2015,04,05,06,01,2.00
2015,04,05,06,02,2.00
2015,04,05,06,03,2.00
2015,04,05,06,04,2.00
2015,04,05,06,05,2.00
2015,04,05,06,06,1.90
2015,04,05,06,07,1.90
2015,04,05,06,08,1.90
2015,04,05,06,09,1.90
2015,04,05,06,10,1.80
2015,04,05,06,11,1.80
2015,04,05,06,12,1.80
2015,04,05,06,13,1.70
2015,04,05,06,14,1.70
2015,04,05,06,15,1.70
2015,04,05,06,16,1.70
2015,04,05,06,17,1.70
2015,04,05,06,18,1.60
2015,04,05,06,19,1.60
2015,04,05,06,20,1.60
2015,04,05,06,21,1.60
2015,04,05,06,22,1.60
2015,04,05,06,23,1.50
2015,04,05,06,24,1.50
2015,04,05,06,25,1.50
2015,04,05,06,26,1.50
2015,04,05,06,27,1.40
2015,04,05,06,28,1.40
2015,04,05,06,29,1.40
2015,04,05,06,30,1.40
2015,04,05,06,31,1.40
2015,04,05,06,32,1.40
2015,04,05,06,33,1.40
2015,04,05,06,34,1.50
2015,04,05,06,35,1.50
2015,04,05,06,36,1.50
2015,04,05,06,37,1.50
2015,04,05,06,38,1.40
2015,04,05,06,39,1.40
2015,04,05,06,40,1.40
2015,04,05,06,41,1.30
2015,04,05,06,42,1.30
2015,04,05,06,43,1.30
2015,04,05,06,44,1.30
2015,04,05,06,45,1.30
2015,04,05,06,46,1.30
2015,04,05,06,47,1.20
2015,04,05,06,48,1.20
2015,04,05,06,49,1.20
2015,04,05,06,50,1.20
2015,04,05,06,51,1.20
2015,04,05,06,52,1.10
2015,04,05,06,53,1.10
2015,04,05,06,54,1.10
2015,04,05,06,55,1.10
2015,04,05,06,56,1.10
2015,04,05,06,57,1.10
2015,04,05,06,58,1.10
2015,04,05,06,59,1.10
2015,04,05,07,00,1.10
2015,04,05,07,01,1.10
2015,04,05,07,02,1.10
2015,04,05,07,03,1.10
2015,04,05,07,04,1.10
2015,04,05,07,05,1.00
2015,04,05,07,06,1.00
2015,04,05,07,07,1.10
2015,04,05,07,08,1.10
2015,04,05,07,09,1.10
2015,04,05,07,10,1.10
2015,04,05,07,11,1.10
2015,04,05,07,12,1.10
2015,04,05,07,13,1.10
2015,04,05,07,14,1.10
2015,04,05,07,15,1.10
2015,04,05,07,16,1.10
2015,04,05,07,17,1.10
2015,04,05,07,18,1.10
2015,04,05,07,19,1.10
2015,04,05,07,20,1.20
2015,04,05,07,21,1.20
2015,04,05,07,22,1.20
2015,04,05,07,23,1.20
2015,04,05,07,24,1.20
2015,04,05,07,25,1.30
2015,04,05,07,26,1.30
2015,04,05,07,27,1.30
2015,04,05,07,28,1.30
2015,04,05,07,29,1.40
2015,04,05,07,30,1.40
2015,04,05,07,31,1.40
2015,04,05,07,32,1.50
2015,04,05,07,33,1.50
2015,04,05,07,34,1.60
2015,04,05,07,35,1.60
2015,04,05,07,36,1.60
2015,04,05,07,37,1.60
2015,04,05,07,38,1.70
2015,04,05,07,39,1.70
2015,04,05,07,40,1.70
2015,04,05,07,41,1.80
2015,04,05,07,42,1.80
2015,04,05,07,43,1.80
2015,04,05,07,44,1.80
2015,04,05,07,45,1.90
2015,04,05,07,46,1.90
2015,04,05,07,47,2.00
2015,04,05,07,48,2.00
2015,04,05,07,49,2.10
2015,04,05,07,50,2.10
2015,04,05,07,51,2.20
2015,04,05,07,52,2.20
2015,04,05,07,53,2.30
2015,04,05,07,54,2.30
2015,04,05,07,55,2.40
2015,04,05,07,56,2.50
2015,04,05,07,57,2.50
2015,04,05,07,58,2.60
2015,04,05,07,59,2.60
2015,04,05,08,00,2.70
2015,04,05,08,01,2.70
2015,04,05,08,02,2.70
2015,04,05,08,03,2.80
2015,04,05,08,04,2.80
2015,04,05,08,05,2.80
2015,04,05,08,06,2.90
2015,04,05,08,07,2.90
2015,04,05,08,08,3.00
2015,04,05,08,09,3.00
2015,04,05,08,10,3.10
2015,04,05,08,11,3.20
2015,04,05,08,12,3.20
2015,04,05,08,13,3.30
2015,04,05,08,14,3.30
2015,04,05,08,15,3.40
2015,04,05,08,16,3.40
2015,04,05,08,17,3.50
2015,04,05,08,18,3.60
2015,04,05,08,19,3.60
2015,04,05,08,20,3.70
2015,04,05,08,21,3.80
2015,04,05,08,22,3.80
2015,04,05,08,23,3.90
2015,04,05,08,24,4.00
2015,04,05,08,25,4.10
2015,04,05,08,26,4.20
2015,04,05,08,27,4.30
2015,04,05,08,28,4.30
2015,04,05,08,29,4.40
2015,04,05,08,30,4.50
2015,04,05,08,31,4.60
2015,04,05,08,32,4.60
2015,04,05,08,33,4.70
2015,04,05,08,34,4.80
2015,04,05,08,35,4.90
2015,04,05,08,36,5.00
2015,04,05,08,37,5.10
2015,04,05,08,38,5.20
2015,04,05,08,39,5.30
2015,04,05,08,40,5.40
2015,04,05,08,41,5.60
2015,04,05,08,42,5.70
2015,04,05,08,43,5.80
2015,04,05,08,44,5.90
2015,04,05,08,45,6.00
2015,04,05,08,46,6.10
2015,04,05,08,47,6.20
2015,04,05,08,48,6.30
2015,04,05,08,49,6.40
2015,04,05,08,50,6.50
2015,04,05,08,51,6.60
2015,04,05,08,52,6.70
2015,04,05,08,53,6.80
2015,04,05,08,54,6.90
2015,04,05,08,55,6.90
2015,04,05,08,56,6.90
2015,04,05,08,57,6.80
2015,04,05,08,58,6.80
2015,04,05,08,59,6.70
2015,04,05,09,00,6.70
2015,04,05,09,01,6.70
2015,04,05,09,02,6.70
2015,04,05,09,03,6.70
2015,04,05,09,04,6.70
2015,04,05,09,05,6.70
2015,04,05,09,06,6.80
2015,04,05,09,07,6.80
2015,04,05,09,08,6.80
2015,04,05,09,09,6.80
2015,04,05,09,10,6.80
2015,04,05,09,11,6.80
2015,04,05,09,12,6.80
2015,04,05,09,13,6.80
2015,04,05,09,14,6.80
2015,04,05,09,15,6.80
2015,04,05,09,16,6.90
2015,04,05,09,17,6.90
2015,04,05,09,18,6.90
2015,04,05,09,19,6.90
2015,04,05,09,20,6.90
2015,04,05,09,21,6.90
2015,04,05,09,22,6.90
2015,04,05,09,23,7.00
2015,04,05,09,24,7.00
2015,04,05,09,25,7.00
2015,04,05,09,26,7.00
2015,04,05,09,27,7.10
2015,04,05,09,28,7.10
2015,04,05,09,29,7.10
2015,04,05,09,30,7.10
2015,04,05,09,31,7.10
2015,04,05,09,32,7.10
2015,04,05,09,33,7.20
2015,04,05,09,34,7.20
2015,04,05,09,35,7.20
2015,04,05,09,36,7.20
2015,04,05,09,37,7.20
2015,04,05,09,38,7.20
2015,04,05,09,39,7.20
2015,04,05,09,40,7.20
2015,04,05,09,41,7.20
2015,04,05,09,42,7.20
2015,04,05,09,43,7.20
2015,04,05,09,44,7.20
2015,04,05,09,45,7.30
2015,04,05,09,46,7.30
2015,04,05,09,47,7.30
2015,04,05,09,48,7.40
2015,04,05,09,49,7.40
2015,04,05,09,50,7.40
2015,04,05,09,51,7.30
2015,04,05,09,52,7.40
2015,04,05,09,53,7.40
2015,04,05,09,54,7.40
2015,04,05,09,55,7.40
2015,04,05,09,56,7.50
2015,04,05,09,57,7.50
2015,04,05,09,58,7.50
2015,04,05,09,59,7.50
2015,04,05,10,00,7.50
2015,04,05,10,01,7.50
2015,04,05,10,02,7.60
2015,04,05,10,03,7.60
2015,04,05,10,04,7.60
2015,04,05,10,05,7.70
2015,04,05,10,06,7.70
2015,04,05,10,07,7.70
2015,04,05,10,08,7.80
2015,04,05,10,09,7.80
2015,04,05,10,10,7.80
2015,04,05,10,11,7.80
2015,04,05,10,12,7.80
2015,04,05,10,13,7.80
2015,04,05,10,14,7.90
2015,04,05,10,15,7.90
2015,04,05,10,16,7.80
2015,04,05,10,17,7.80
2015,04,05,10,18,7.80
2015,04,05,10,19,7.80
2015,04,05,10,20,7.90
2015,04,05,10,21,7.90
2015,04,05,10,22,7.90
2015,04,05,10,23,7.90
2015,04,05,10,24,7.90
2015,04,05,10,25,8.00
2015,04,05,10,26,8.10
2015,04,05,10,27,8.10
2015,04,05,10,28,8.10
2015,04,05,10,29,8.10
2015,04,05,10,30,8.10
2015,04,05,10,31,8.10
2015,04,05,10,32,8.10
2015,04,05,10,33,8.10
2015,04,05,10,34,8.10
2015,04,05,10,35,8.10
2015,04,05,10,36,8.20
2015,04,05,10,37,8.20
2015,04,05,10,38,8.20
2015,04,05,10,39,8.30
2015,04,05,10,40,8.30
2015,04,05,10,41,8.30
2015,04,05,10,42,8.30
2015,04,05,10,43,8.30
2015,04,05,10,44,8.30
2015,04,05,10,45,8.30
2015,04,05,10,46,8.30
2015,04,05,10,47,8.40
2015,04,05,10,48,8.30
2015,04,05,10,49,8.40
2015,04,05,10,50,8.40
2015,04,05,10,51,8.40
2015,04,05,10,52,8.50
2015,04,05,10,53,8.50
2015,04,05,10,54,8.60
2015,04,05,10,55,8.60
2015,04,05,10,56,8.60
2015,04,05,10,57,8.60
2015,04,05,10,58,8.70
2015,04,05,10,59,8.70
2015,04,05,11,00,8.70
2015,04,05,11,01,8.70
2015,04,05,11,02,8.70
2015,04,05,11,03,8.70
2015,04,05,11,04,8.70
2015,04,05,11,05,8.80
2015,04,05,11,06,8.80
2015,04,05,11,07,8.70
2015,04,05,11,08,8.70
2015,04,05,11,09,8.60
2015,04,05,11,10,8.60
2015,04,05,11,11,8.50
2015,04,05,11,12,8.40
2015,04,05,11,13,8.40
2015,04,05,11,14,8.40
2015,04,05,11,15,8.50
2015,04,05,11,16,8.50
2015,04,05,11,17,8.60
2015,04,05,11,18,8.60
2015,04,05,11,19,8.70
2015,04,05,11,20,8.70
2015,04,05,11,21,8.70
2015,04,05,11,22,8.70
2015,04,05,11,23,8.70
2015,04,05,11,24,8.70
2015,04,05,11,25,8.80
2015,04,05,11,26,8.80
2015,04,05,11,27,8.70
2015,04,05,11,28,8.80
2015,04,05,11,29,8.80
2015,04,05,11,30,8.80
2015,04,05,11,31,8.90
2015,04,05,11,32,8.90
2015,04,05,11,33,8.90
2015,04,05,11,34,8.90
2015,04,05,11,35,8.90
2015,04,05,11,36,8.90
2015,04,05,11,37,9.00
2015,04,05,11,38,9.00
2015,04,05,11,39,9.10
2015,04,05,11,40,9.10
2015,04,05,11,41,9.20
2015,04,05,11,42,9.20
2015,04,05,11,43,9.20
2015,04,05,11,44,9.20
2015,04,05,11,45,9.30
2015,04,05,11,46,9.30
2015,04,05,11,47,9.30
2015,04,05,11,48,9.20
2015,04,05,11,49,9.10
2015,04,05,11,50,9.00
2015,04,05,11,51,9.00
2015,04,05,11,52,9.10
2015,04,05,11,53,9.10
2015,04,05,11,54,9.10
2015,04,05,11,55,9.10
2015,04,05,11,56,9.20
2015,04,05,11,57,9.20
2015,04,05,11,58,9.20
2015,04,05,11,59,9.20
2015,04,05,12,00,9.20
2015,04,05,12,01,9.10
2015,04,05,12,02,9.10
2015,04,05,12,03,9.10
2015,04,05,12,04,9.10
2015,04,05,12,05,9.10
2015,04,05,12,06,9.10
2015,04,05,12,07,9.20
2015,04,05,12,08,9.20
2015,04,05,12,09,9.20
2015,04,05,12,10,9.20
2015,04,05,12,11,9.10
2015,04,05,12,12,9.10
2015,04,05,12,13,9.10
2015,04,05,12,14,9.10
2015,04,05,12,15,9.00
2015,04,05,12,16,9.10
2015,04,05,12,17,9.10
2015,04,05,12,18,9.10
2015,04,05,12,19,9.10
2015,04,05,12,20,9.10
2015,04,05,12,21,9.10
2015,04,05,12,22,9.10
2015,04,05,12,23,9.10
2015,04,05,12,24,9.10
2015,04,05,12,25,9.10
2015,04,05,12,26,9.10
2015,04,05,12,27,9.10
2015,04,05,12,28,9.10
2015,04,05,12,29,9.10
2015,04,05,12,30,9.20
2015,04,05,12,31,9.30
2015,04,05,12,32,9.30
2015,04,05,12,33,9.30
2015,04,05,12,34,9.30
2015,04,05,12,35,9.30
2015,04,05,12,36,9.30
2015,04,05,12,37,9.40
2015,04,05,12,38,9.40
2015,04,05,12,39,9.40
2015,04,05,12,40,9.40
2015,04,05,12,41,9.40
2015,04,05,12,42,9.40
2015,04,05,12,43,9.50
2015,04,05,12,44,9.50
2015,04,05,12,45,9.60
2015,04,05,12,46,9.60
2015,04,05,12,47,9.70
2015,04,05,12,48,9.70
2015,04,05,12,49,9.80
2015,04,05,12,50,9.80
2015,04,05,12,51,9.80
2015,04,05,12,52,9.80
2015,04,05,12,53,9.80
2015,04,05,12,54,9.80
2015,04,05,12,55,9.70
2015,04,05,12,56,9.70
2015,04,05,12,57,9.70
2015,04,05,12,58,9.70
2015,04,05,12,59,9.70
2015,04,05,13,00,9.70
2015,04,05,13,01,9.70
2015,04,05,13,02,9.80
2015,04,05,13,03,9.80
2015,04,05,13,04,9.80
2015,04,05,13,05,9.90
2015,04,05,13,06,10.00
2015,04,05,13,07,10.10
2015,04,05,13,08,10.10
2015,04,05,13,09,10.20
2015,04,05,13,10,10.20
2015,04,05,13,11,10.20
2015,04,05,13,12,10.30
2015,04,05,13,13,10.30
2015,04,05,13,14,10.30
2015,04,05,13,15,10.30
2015,04,05,13,16,10.30
2015,04,05,13,17,10.20
2015,04,05,13,18,10.20
2015,04,05,13,19,10.20
2015,04,05,13,20,10.10
2015,04,05,13,21,10.10
2015,04,05,13,22,10.10
2015,04,05,13,23,10.10
2015,04,05,13,24,10.20
2015,04,05,13,25,10.20
2015,04,05,13,26,10.30
2015,04,05,13,27,10.30
2015,04,05,13,28,10.40
2015,04,05,13,29,10.50
2015,04,05,13,30,10.50
2015,04,05,13,31,10.60
2015,04,05,13,32,10.60
2015,04,05,13,33,10.50
2015,04,05,13,34,10.50
2015,04,05,13,35,10.60
2015,04,05,13,36,10.60
2015,04,05,13,37,10.60
2015,04,05,13,38,10.60
2015,04,05,13,39,10.50
2015,04,05,13,40,10.50
2015,04,05,13,41,10.40
2015,04,05,13,42,10.40
2015,04,05,13,43,10.40
2015,04,05,13,44,10.50
2015,04,05,13,45,10.50
2015,04,05,13,46,10.60
2015,04,05,13,47,10.60
2015,04,05,13,48,10.60
2015,04,05,13,49,10.70
2015,04,05,13,50,10.70
2015,04,05,13,51,10.80
2015,04,05,13,52,10.80
2015,04,05,13,53,10.80
2015,04,05,13,54,10.80
2015,04,05,13,55,10.90
2015,04,05,13,56,10.90
2015,04,05,13,57,10.90
2015,04,05,13,58,11.00
2015,04,05,13,59,11.00
2015,04,05,14,00,11.10
2015,04,05,14,01,11.20
2015,04,05,14,02,11.20
2015,04,05,14,03,11.20
2015,04,05,14,04,11.20
2015,04,05,14,05,11.30
2015,04,05,14,06,11.30
2015,04,05,14,07,11.30
2015,04,05,14,08,11.30
2015,04,05,14,09,11.20
2015,04,05,14,10,11.10
2015,04,05,14,11,11.10
2015,04,05,14,12,11.10
2015,04,05,14,13,11.10
2015,04,05,14,14,11.10
2015,04,05,14,15,11.10
2015,04,05,14,16,11.10
2015,04,05,14,17,11.10
2015,04,05,14,18,11.10
2015,04,05,14,19,11.10
2015,04,05,14,20,11.10
2015,04,05,14,21,11.10
2015,04,05,14,22,11.20
2015,04,05,14,23,11.20
2015,04,05,14,24,11.20
2015,04,05,14,25,11.20
2015,04,05,14,26,11.20
2015,04,05,14,27,11.30
2015,04,05,14,28,11.30
2015,04,05,14,29,11.30
2015,04,05,14,30,11.30
2015,04,05,14,31,11.30
2015,04,05,14,32,11.30
2015,04,05,14,33,11.30
2015,04,05,14,34,11.30
2015,04,05,14,35,11.30
2015,04,05,14,36,11.30
2015,04,05,14,37,11.30
2015,04,05,14,38,11.40
2015,04,05,14,39,11.40
2015,04,05,14,40,11.50
2015,04,05,14,41,11.50
2015,04,05,14,42,11.50
2015,04,05,14,43,11.50
2015,04,05,14,44,11.50
2015,04,05,14,45,11.50
2015,04,05,14,46,11.40
2015,04,05,14,47,11.40
2015,04,05,14,48,11.40
2015,04,05,14,49,11.40
2015,04,05,14,50,11.40
2015,04,05,14,51,11.40
2015,04,05,14,52,11.50
2015,04,05,14,53,11.60
2015,04,05,14,54,11.60
2015,04,05,14,55,11.70
2015,04,05,14,56,11.70
2015,04,05,14,57,11.70
2015,04,05,14,58,11.70
2015,04,05,14,59,11.70
2015,04,05,15,00,11.70
2015,04,05,15,01,11.60
2015,04,05,15,02,11.70
2015,04,05,15,03,11.70
2015,04,05,15,04,11.70
2015,04,05,15,05,11.70
2015,04,05,15,06,11.70
2015,04,05,15,07,11.70
2015,04,05,15,08,11.80
2015,04,05,15,09,11.80
2015,04,05,15,10,11.80
2015,04,05,15,11,11.80
2015,04,05,15,12,11.70
2015,04,05,15,13,11.70
2015,04,05,15,14,11.70
2015,04,05,15,15,11.70
2015,04,05,15,16,11.60
2015,04,05,15,17,11.60
2015,04,05,15,18,11.60
2015,04,05,15,19,11.70
2015,04,05,15,20,11.70
2015,04,05,15,21,11.80
2015,04,05,15,22,11.80
2015,04,05,15,23,11.80
2015,04,05,15,24,11.80
2015,04,05,15,25,11.80
2015,04,05,15,26,11.80
2015,04,05,15,27,11.80
2015,04,05,15,28,11.80
2015,04,05,15,29,11.80
2015,04,05,15,30,11.70
2015,04,05,15,31,11.80
2015,04,05,15,32,11.70
2015,04,05,15,33,11.70
2015,04,05,15,34,11.80
2015,04,05,15,35,11.80
2015,04,05,15,36,11.80
2015,04,05,15,37,11.90
2015,04,05,15,38,11.90
2015,04,05,15,39,11.90
2015,04,05,15,40,11.90
2015,04,05,15,41,11.90
2015,04,05,15,42,11.90
2015,04,05,15,43,11.90
2015,04,05,15,44,11.90
2015,04,05,15,45,11.90
2015,04,05,15,46,11.90
2015,04,05,15,47,11.90
2015,04,05,15,48,12.00
2015,04,05,15,49,12.00
2015,04,05,15,50,12.10
2015,04,05,15,51,12.10
2015,04,05,15,52,12.20
2015,04,05,15,53,12.20
2015,04,05,15,54,12.20
2015,04,05,15,55,12.20
2015,04,05,15,56,12.20
2015,04,05,15,57,12.20
2015,04,05,15,58,12.20
2015,04,05,15,59,12.20
2015,04,05,16,00,12.20
2015,04,05,16,01,12.10
2015,04,05,16,02,12.10
2015,04,05,16,03,12.10
2015,04,05,16,04,12.10
2015,04,05,16,05,12.10
2015,04,05,16,06,12.10
2015,04,05,16,07,12.10
2015,04,05,16,08,12.00
2015,04,05,16,09,12.00
2015,04,05,16,10,12.00
2015,04,05,16,11,12.10
2015,04,05,16,12,12.10
2015,04,05,16,13,12.00
2015,04,05,16,14,12.00
2015,04,05,16,15,12.00
2015,04,05,16,16,12.00
2015,04,05,16,17,12.00
2015,04,05,16,18,12.00
2015,04,05,16,19,12.10
2015,04,05,16,20,12.20
2015,04,05,16,21,12.20
2015,04,05,16,22,12.20
2015,04,05,16,23,12.30
2015,04,05,16,24,12.30
2015,04,05,16,25,12.30
2015,04,05,16,26,12.40
2015,04,05,16,27,12.40
2015,04,05,16,28,12.40
2015,04,05,16,29,12.30
2015,04,05,16,30,12.30
2015,04,05,16,31,12.30
2015,04,05,16,32,12.30
2015,04,05,16,33,12.30
2015,04,05,16,34,12.30
2015,04,05,16,35,12.30
2015,04,05,16,36,12.20
2015,04,05,16,37,12.20
2015,04,05,16,38,12.20
2015,04,05,16,39,12.20
2015,04,05,16,40,12.20
2015,04,05,16,41,12.20
2015,04,05,16,42,12.20
2015,04,05,16,43,12.20
2015,04,05,16,44,12.20
2015,04,05,16,45,12.30
2015,04,05,16,46,12.30
2015,04,05,16,47,12.30
2015,04,05,16,48,12.40
2015,04,05,16,49,12.40
2015,04,05,16,50,12.40
2015,04,05,16,51,12.40
2015,04,05,16,52,12.40
2015,04,05,16,53,12.40
2015,04,05,16,54,12.40
2015,04,05,16,55,12.40
2015,04,05,16,56,12.40
2015,04,05,16,57,12.40
2015,04,05,16,58,12.30
2015,04,05,16,59,12.30
2015,04,05,17,00,12.40
2015,04,05,17,01,12.40
2015,04,05,17,02,12.40
2015,04,05,17,03,12.40
2015,04,05,17,04,12.30
2015,04,05,17,05,12.40
2015,04,05,17,06,12.40
2015,04,05,17,07,12.40
2015,04,05,17,08,12.50
2015,04,05,17,09,12.50
2015,04,05,17,10,12.60
2015,04,05,17,11,12.60
2015,04,05,17,12,12.70
2015,04,05,17,13,12.70
2015,04,05,17,14,12.70
2015,04,05,17,15,12.70
2015,04,05,17,16,12.70
2015,04,05,17,17,12.70
2015,04,05,17,18,12.70
2015,04,05,17,19,12.60
2015,04,05,17,20,12.50
2015,04,05,17,21,12.40
2015,04,05,17,22,12.40
2015,04,05,17,23,12.30
2015,04,05,17,24,12.30
2015,04,05,17,25,12.20
2015,04,05,17,26,12.20
2015,04,05,17,27,12.20
2015,04,05,17,28,12.10
2015,04,05,17,29,12.10
2015,04,05,17,30,12.10
2015,04,05,17,31,12.10
2015,04,05,17,32,12.20
2015,04,05,17,33,12.20
2015,04,05,17,34,12.20
2015,04,05,17,35,12.20
2015,04,05,17,36,12.20
2015,04,05,17,37,12.20
2015,04,05,17,38,12.20
2015,04,05,17,39,12.20
2015,04,05,17,40,12.20
2015,04,05,17,41,12.20
2015,04,05,17,42,12.30
2015,04,05,17,43,12.30
2015,04,05,17,44,12.30
2015,04,05,17,45,12.30
2015,04,05,17,46,12.30
2015,04,05,17,47,12.30
2015,04,05,17,48,12.30
2015,04,05,17,49,12.30
2015,04,05,17,50,12.30
2015,04,05,17,51,12.30
2015,04,05,17,52,12.30
2015,04,05,17,53,12.30